Location: Houhaj�rvi
(61.2667°N, 23.0167°E)
Time: 16:36:37
(UTC+00:00)

YAOGAN 6 - Pass Details

Date: 13 December 2019
Orbit: 466 x 504 km, 97.0° (Epoch: 22 January)

Event Time Altitude Azimuth Distance (km) Brightness Sun altitude
Rises 14:56:21 0° 126° (SE) 2,549 6.0 -10.6°
Reaches altitude 10° 14:58:39 10° 112° (ESE) 1,680 4.9 -10.8°
Maximum altitude 15:01:36 24° 57° (ENE) 1,058 3.7 -11.1°
Drops below altitude 10° 15:04:36 10° 2° (N) 1,708 5.0 -11.4°
Sets 15:06:57 0° 349° (N) 2,602 6.1 -11.7°
